Location: Clermont
(50.2608°N, 4.3172°E)
Time: 05:35:11
(UTC+00:00)

Cosmos 2084 Rocket - Pass Details

Date: 13 August 2020
Orbit: 549 x 631 km, 62.8° (Epoch: 19 September)

Event Time Altitude Azimuth Distance (km) Brightness Sun altitude
Rises 20:52:02 0° 206° (SSW) 2,731 6.7 -14.9°
Reaches altitude 10° 20:54:17 10° 200° (SSW) 1,850 5.7 -15.1°
Maximum altitude 20:58:16 47° 126° (SE) 764 3.6 -15.5°
Drops below altitude 10° 21:02:24 10° 53° (NE) 1,907 6.0 -16.0°
Sets 21:04:44 0° 48° (NE) 2,826 7.0 -16.2°
